{"data":{"norad_id":52630,"epoch":"2026-05-25T02:20:47.524128Z","epoch_age_seconds":70073,"freshness":"FRESH","line1":"1 52630U 22052AJ  26145.09777227 -.00000673  00000+0 -24171-4 0  9992","line2":"2 52630  53.2132 286.1105 0001303  85.0375 275.0765 15.08841303222520","mean_motion":15.08841303,"eccentricity":0.0001303,"inclination_deg":53.2132,"raan_deg":286.1105,"arg_perigee_deg":85.0375,"mean_anomaly_deg":275.0765,"bstar":-2.4171e-5,"rev_number":22252,"period_min":95.437472260129,"perigee_km":538.83800692151,"apogee_km":540.64080551297,"semimajor_km":6917.8764062172,"source":"CELESTRAK","updated_at":"2026-05-25T13:38:17.203752Z"}}